Regional Weather Roundup
Issued by NWS Midland/Odessa, TX

Skip options and go directly to product.
Home | Oldest Version | Previous Version | Current Version | All | Graphics & Text | Save Text | Print | Product List | Glossary On

Skip product version selection by date and time.   
378
ASUS44 KMAF 160910
RWRMAF
MIDLAND AREA WEATHER ROUNDUP
NATIONAL WEATHER SERVICE MIDLAND TX
400 AM CDT TUE SEP 16 2014

...IN SOUTHWEST TEXAS AND SOUTHEAST NEW MEXICO...

CITY           SKY/WX    TMP DP  RH WIND       PRES   REMARKS
ALPINE         MOCLDY    65  62  88 E6        30.29F
ANDREWS        FAIR      67  65  94 CALM      30.21F
ARTESIA        NOT AVBL
BIG SPRING     CLOUDY    74  67  79 E3        30.20F
CARLSBAD       CLOUDY    70 N/A N/A CALM      30.20F
DRYDEN           N/A     73  68  84 N7        30.12F
FORT STOCKTON  CLOUDY    67  65  93 E5        30.18F FOG
GUAD PASS      FOG       62  61  96 NE22      30.30F VSB 1/4
HOBBS          CLOUDY    66  66 100 CALM      30.25S
MARFA          MOCLDY    63  63 100 E6        30.28F
MIDLAND AIRPK  NOT AVBL
MIDLAND INTL   CLOUDY    70  67  90 SE6       30.19S
ODESSA         CLOUDY    69  66  90 E5        30.20S
PECOS          CLOUDY    69  65  88 NE5       30.16F
PRESIDIO       FAIR      73  64  72 NE8       30.13S
SEMINOLE       CLOUDY    68  65  88 CALM      30.23S
SNYDER         CLOUDY    72  67  85 CALM      30.19S
WINK           MOCLDY    70  67  90 NE3       30.17F
$$
...OTHER STATIONS IN TEXAS...

CITY           SKY/WX    TMP DP  RH WIND       PRES   REMARKS
ABILENE        MOCLDY    74  66  76 CALM      30.16S
AMARILLO       CLOUDY    58  57  97 N7        30.28S FOG
AUSTIN         CLOUDY    75  72  90 N3        30.07F
BROWNSVILLE    FOG       75  75 100 CALM      29.99F VSB 1/2
CORPUS CHRISTI CLOUDY    80  77  90 NE8       29.99F
DALLAS FTW     MOCLDY    76  68  76 E3        30.10F
DEL RIO        CLOUDY    73  70  90 CALM      30.08S
EL PASO        LGT RAIN  68  64  87 NE7       30.20S
HOUSTON INT    MOCLDY    76  74  93 NE5       30.04F
LUBBOCK        CLOUDY    66  62  87 NE9       30.22F
SAN ANGELO     LGT RAIN  71  69  93 CALM      30.15F
SAN ANTONIO    MOCLDY    78  71  79 NE3       30.08F
WACO           CLOUDY    73  71  93 CALM      30.10S
WICHITA FALLS  NOT AVBL
$$
...OTHER LOCATIONS IN NEW MEXICO...

CITY           SKY/WX    TMP DP  RH WIND       PRES   REMARKS
ALAMAGORDO     MOCLDY    68  63  83 CALM      30.23S
ALBUQUERQUE    CLOUDY    66  56  70 E15       30.30F
CANNON AFB     CLOUDY    61  57  88 NE9       30.29F FOG
CLOVIS           N/A     61  57  88 NE9       30.31F
HOLLOMAN AFB   MOCLDY    69  64  83 S3        30.20F
ROSWELL        CLOUDY    68  64  87 CALM      30.23F
RUIDOSO        CLOUDY    57  57 100 S8        30.41S
SANTA FE       MOCLDY    59  53  80 S5        30.37F
TRUTH OR CONSE LGT RAIN  64  63  96 NE8       30.25S
TUCUMCARI      CLOUDY    62  55  77 NE5       30.29F
$$

USA.gov is the U.S. government's official web portal to all federal, state and local government web resources and services.